Weather History for KMTH - February, 2012

Change the Weather History Date:

Monday, February 27, 2012

  Actual Average Record
Temperature  
Mean Temperature 80 °F 72 °F  
Max Temperature 83 °F 78 °F 86 °F (1997)
Min Temperature 76 °F 67 °F 57 °F (2002)
Degree Days  
Heating Degree Days 0 1  
Month to date heating degree days 7 23  
Since 1 July heating degree days 33 82  
Cooling Degree Days 15 8  
Month to date cooling degree days 265 193  
Year to date cooling degree days 482 374  
Growing Degree Days 28 (Base 50)    
Moisture  
Dew Point 70 °F    
Average Humidity 74    
Maximum Humidity 82    
Minimum Humidity 65    
Precipitation  
Precipitation 0.00 in 0.07 in 0.05 in (2008)
Month to date precipitation 2.09 2.14  
Year to date precipitation 2.66 3.75  
Snow  
Snow 0.00 in - - ()
Month to date snowfall 0.0  
Since 1 July snowfall 0.0  
Snow Depth 0.00 in    
Sea Level Pressure  
Sea Level Pressure 30.20 in    
Wind  
Wind Speed 10 mph (East)    
Max Wind Speed 17 mph    
Max Gust Speed 24 mph    
Visibility 10 miles    
Events      
T = Trace of Precipitation, MM = Missing Value Source: NWS Daily Summary

Daily Weather History Graph

Daily Weather History Graph

Search for Another Location

Airport or City:

Trip Planner

Search our weather history database for the weather conditions in past years. The results will help you decide how hot, cold, wet, or windy it might be!

Date:

Astronomy

Feb. 27, 2012 Rise Set
Actual Time 6:49 AM EST 6:25 PM EST
Civil Twilight 6:26 AM EST 6:48 PM EST
Nautical Twilight 5:59 AM EST 7:14 PM EST
Astronomical Twilight 5:33 AM EST 7:41 PM EST
Moon 9:58 AM EST (2/27) 11:33 PM EST (2/27)
Length of Visible Light 12h 22m
Length of Day
11h 36m
Waxing Crescent, 29% of the Moon is Illuminated
Feb 27
Waxing Crescent
Feb 29
First Quarter
Mar 8
Full
Mar 14
Last Quarter
Mar 22
New

Hourly Weather History & Observations

Time (EST) Temp. Heat Index Dew Point Humidity Pressure Visibility Wind Dir Wind Speed Gust Speed Precip Events Conditions
12:53 AM 75.9 °F - 70.0 °F 82% 30.20 in 10.0 mi East 8.1 mph 24.2 mph N/A   Partly Cloudy
1:53 AM 75.9 °F - 70.0 °F 82% 30.19 in 10.0 mi East 12.7 mph 21.9 mph N/A   Partly Cloudy
2:23 AM 75.2 °F - 69.8 °F 83% 30.19 in 10.0 mi East 11.5 mph 19.6 mph N/A   Mostly Cloudy
2:46 AM 75.2 °F - 69.8 °F 83% 30.18 in 10.0 mi East 10.4 mph 18.4 mph N/A   Scattered Clouds
2:53 AM 75.9 °F - 70.0 °F 82% 30.18 in 10.0 mi East 12.7 mph 18.4 mph N/A   Mostly Cloudy
3:36 AM 75.2 °F - 69.8 °F 83% 30.18 in 10.0 mi East 15.0 mph 20.7 mph N/A   Mostly Cloudy
3:53 AM 75.9 °F - 70.0 °F 82% 30.17 in 10.0 mi East 11.5 mph 19.6 mph N/A   Scattered Clouds
4:53 AM 75.9 °F - 70.0 °F 82% 30.17 in 10.0 mi East 11.5 mph 20.7 mph N/A   Clear
5:53 AM 75.9 °F - 70.0 °F 82% 30.19 in 10.0 mi East 10.4 mph 18.4 mph N/A   Clear
6:53 AM 75.9 °F - 70.0 °F 82% 30.19 in 10.0 mi East 10.4 mph 19.6 mph N/A   Clear
7:53 AM 77.0 °F - 71.1 °F 82% 30.21 in 10.0 mi ESE 10.4 mph 21.9 mph N/A   Clear
8:53 AM 79.0 °F - 71.1 °F 77% 30.22 in 10.0 mi ESE 11.5 mph 21.9 mph N/A   Clear
9:53 AM 81.0 °F 84.4 °F 70.0 °F 69% 30.25 in 10.0 mi ESE 8.1 mph 17.3 mph N/A   Clear
10:53 AM 81.0 °F 84.9 °F 71.1 °F 72% 30.25 in 10.0 mi East 11.5 mph - N/A   Scattered Clouds
11:53 AM 82.0 °F 86.3 °F 71.1 °F 69% 30.24 in 10.0 mi East 9.2 mph 17.3 mph N/A   Partly Cloudy
12:53 PM 82.0 °F 86.7 °F 72.0 °F 71% 30.23 in 10.0 mi East 9.2 mph - N/A   Partly Cloudy
1:53 PM 82.0 °F 85.5 °F 69.1 °F 65% 30.22 in 10.0 mi East 8.1 mph - 0.13 in   Clear
2:53 PM 82.0 °F 85.9 °F 70.0 °F 67% 30.19 in 10.0 mi East 8.1 mph - N/A   Clear
3:53 PM 82.0 °F 85.5 °F 69.1 °F 65% 30.18 in 10.0 mi ESE 9.2 mph 16.1 mph N/A   Clear
4:53 PM 81.0 °F 84.4 °F 70.0 °F 69% 30.18 in 10.0 mi East 8.1 mph 16.1 mph N/A   Partly Cloudy
5:53 PM 79.0 °F - 69.1 °F 72% 30.18 in 10.0 mi East 12.7 mph - N/A   Partly Cloudy
6:53 PM 78.1 °F - 70.0 °F 76% 30.19 in 10.0 mi East 10.4 mph - N/A   Clear
7:53 PM 77.0 °F - 70.0 °F 79% 30.19 in 10.0 mi East 9.2 mph - N/A   Clear
8:53 PM 77.0 °F - 70.0 °F 79% 30.21 in 10.0 mi ENE 9.2 mph - N/A   Clear
9:53 PM 77.0 °F - 70.0 °F 79% 30.22 in 10.0 mi East 11.5 mph 17.3 mph N/A   Clear
10:53 PM 77.0 °F - 70.0 °F 79% 30.22 in 10.0 mi East 8.1 mph - N/A   Clear
11:53 PM 75.9 °F - 71.1 °F 85% 30.22 in 10.0 mi ENE 8.1 mph - N/A   Scattered Clouds